�򕌑�w�@�ʎR���K�с@�J���J�y��,,,,,,,,,,,,,,�d���d��,,
Date Time,PAR (uE) ,,Temp(*C) ,RH (%) ,Counts,,,���ϕ���m/s,���ϕ���,�ő啗��m/s,�ő啗��������,�ő啗�������t,�ő啗��������,�u,�ƓxLx,�������~��
2009/1/1 0:00,1.3,0.3,-5.511,85.2,0,2009/1/1,0:00:00,1.6, E ,10.8, W ,2008/12/31,23:54:26,2.5,,
2009/1/1 0:10,1.3,0.3,-5.574,85.6,0,2009/1/1,0:10:00,0.7, N ,7.2,SSE,2009/1/1,0:00:02,,,
2009/1/1 0:20,1.3,0.3,-5.574,85.8,0,2009/1/1,0:20:00,2.3,SSW,7.2,WSW,2009/1/1,0:12:30,,,
2009/1/1 0:30,1.3,0.3,-5.698,86,0,2009/1/1,0:30:00,1.4, E ,7.2,SW ,2009/1/1,0:27:28,,,
2009/1/1 0:40,1.3,0.3,-5.667,86.3,0,2009/1/1,0:40:00,0.5, N ,7.2,SSW,2009/1/1,0:35:49,,,
2009/1/1 0:50,1.3,0.3,-5.698,86.2,0,2009/1/1,0:50:00,0.7,ESE,7.2,NNW,2009/1/1,0:48:40,,,
2009/1/1 1:00,1.3,0.3,-5.698,86,0,2009/1/1,1:00:00,1.6,ESE,7.2, N ,2009/1/1,0:52:43,2.5,,
2009/1/1 1:10,1.3,0.3,-5.823,85.7,0,2009/1/1,1:10:00,1.6,ESE,7.2, S ,2009/1/1,1:04:06,,,
2009/1/1 1:20,1.3,0.3,-5.979,85.6,0,2009/1/1,1:20:00,1.1,ESE,7.2,NE ,2009/1/1,1:18:11,,,
2009/1/1 1:30,1.3,0.3,-6.01,86,0,2009/1/1,1:30:00,3.6,SE ,10.8,NNW,2009/1/1,1:23:42,,,
2009/1/1 1:40,1.3,0.3,-5.948,86.1,0,2009/1/1,1:40:00,4.7, S ,12.6,NNW,2009/1/1,1:39:11,,,
2009/1/1 1:50,1.3,0.3,-5.948,86.1,0,2009/1/1,1:50:00,1.6, E ,7.2,WSW,2009/1/1,1:40:12,,,
2009/1/1 2:00,1.3,0.3,-6.388,86.6,0,2009/1/1,2:00:00,0,NW ,1.8,WSW,2009/1/1,1:50:02,2.5,,
2009/1/1 2:10,1.3,0.3,-6.547,87.4,0,2009/1/1,2:10:00,0,SW ,0, N ,2009/1/1,2:00:00,,,
2009/1/1 2:20,1.3,0.3,-6.294,87.3,0,2009/1/1,2:20:00,0.5, E ,7.2,ENE,2009/1/1,2:17:45,,,
2009/1/1 2:30,1.3,0.3,-5.854,86.9,0,2009/1/1,2:30:00,5.2,SSW,10.8,WSW,2009/1/1,2:23:12,,,
2009/1/1 2:40,1.3,0.3,-5.854,86.2,0,2009/1/1,2:40:00,4.9,SSE,10.8,SSW,2009/1/1,2:39:30,,,
2009/1/1 2:50,1.3,0.3,-5.729,85.9,0,2009/1/1,2:50:00,4.9,SE ,10.8,SSE,2009/1/1,2:40:04,,,
2009/1/1 3:00,1.3,0.3,-5.823,85.5,0,2009/1/1,3:00:00,2.5, E ,10.8, W ,2009/1/1,2:56:25,2.5,,
2009/1/1 3:10,1.3,0.3,-6.199,85.5,0,2009/1/1,3:10:00,0.7,ESE,9,NNW,2009/1/1,3:05:38,,,
2009/1/1 3:20,1.3,0.3,-6.515,86.6,0,2009/1/1,3:20:00,0.5,ENE,7.2,NNW,2009/1/1,3:14:32,,,
2009/1/1 3:30,1.3,0.3,-6.388,87.2,0,2009/1/1,3:30:00,0.9,NNE,7.2,SSW,2009/1/1,3:21:09,,,
2009/1/1 3:40,1.3,0.3,-6.547,87.6,0,2009/1/1,3:40:00,0, E ,3.6, N ,2009/1/1,3:37:55,,,
2009/1/1 3:50,1.3,0.3,-6.579,88.3,0,2009/1/1,3:50:00,0,NNE,3.6,SE ,2009/1/1,3:41:01,,,
2009/1/1 4:00,1.3,0.3,-6.866,88.8,0,2009/1/1,4:00:00,0,WSW,0, N ,2009/1/1,3:50:00,2.5,,
2009/1/1 4:10,1.3,0.3,-7.09,89.5,0,2009/1/1,4:10:00,0, E ,0, N ,2009/1/1,4:00:00,,,
2009/1/1 4:20,1.3,0.3,-6.994,89.8,0,2009/1/1,4:20:00,0, E ,1.8,NW ,2009/1/1,4:13:19,,,
2009/1/1 4:30,1.3,0.3,-7.058,89.7,0,2009/1/1,4:30:00,0.2,NE ,1.8, S ,2009/1/1,4:23:24,,,
2009/1/1 4:40,1.3,0.3,-6.738,90.2,0,2009/1/1,4:40:00,0.2, E ,3.6,SE ,2009/1/1,4:33:52,,,
2009/1/1 4:50,1.3,0.3,-6.77,89.8,0,2009/1/1,4:50:00,0.2,NE ,5.4, N ,2009/1/1,4:49:09,,,
2009/1/1 5:00,1.3,0.3,-6.642,89.9,0,2009/1/1,5:00:00,0.2, E ,3.6,SE ,2009/1/1,4:57:48,2.5,,
2009/1/1 5:10,1.3,0.3,-6.452,89.5,0,2009/1/1,5:10:00,0,NNW,3.6,NNE,2009/1/1,5:00:03,,,
2009/1/1 5:20,1.3,0.3,-6.231,89.3,0,2009/1/1,5:20:00,0.5,NW ,5.4, S ,2009/1/1,5:12:28,,,
2009/1/1 5:30,1.3,0.3,-6.073,88.7,0,2009/1/1,5:30:00,0.7,ENE,9, W ,2009/1/1,5:28:57,,,
2009/1/1 5:40,1.3,0.3,-5.885,88.6,0,2009/1/1,5:40:00,0.9, E ,10.8,WSW,2009/1/1,5:39:33,,,
2009/1/1 5:50,1.3,0.3,-5.76,88.4,0,2009/1/1,5:50:00,2.2,NE ,9,NW ,2009/1/1,5:42:46,,,
2009/1/1 6:00,1.3,0.3,-5.76,88.4,0,2009/1/1,6:00:00,0.4, E ,7.2, N ,2009/1/1,5:56:51,2.5,,
2009/1/1 6:10,1.3,0.3,-5.76,88.4,0,2009/1/1,6:10:00,1.4, E ,9,NNW,2009/1/1,6:01:23,,,
2009/1/1 6:20,1.3,0.3,-5.823,88.8,0,2009/1/1,6:20:00,0.2, E ,3.6,ENE,2009/1/1,6:10:01,,,
2009/1/1 6:30,1.3,0.3,-5.823,88.6,0,2009/1/1,6:30:00,3.2,SSE,10.8,WNW,2009/1/1,6:29:51,,,
2009/1/1 6:40,1.3,0.3,-5.885,88.5,0,2009/1/1,6:40:00,2.3, E ,7.2,NNW,2009/1/1,6:30:12,,,
2009/1/1 6:50,1.3,0.3,-5.916,88.6,0,2009/1/1,6:50:00,0.7,ESE,5.4,WNW,2009/1/1,6:41:11,,,
2009/1/1 7:00,3.8,0.3,-5.948,88.7,0,2009/1/1,7:00:00,0.4, E ,5.4, N ,2009/1/1,6:50:29,2.5,,
2009/1/1 7:10,13.8,0.4,-5.823,89.1,0,2009/1/1,7:10:00,2,SSE,12.6, N ,2009/1/1,7:04:56,,,
2009/1/1 7:20,23.8,0.6,-5.823,88.9,0,2009/1/1,7:20:00,0,NE ,0, N ,2009/1/1,7:10:00,,,
2009/1/1 7:30,43.8,0.7,-5.76,89,0,2009/1/1,7:30:00,2.2, N ,9, S ,2009/1/1,7:23:14,,,
2009/1/1 7:40,58.8,0.8,-5.698,89,0,2009/1/1,7:40:00,0.5,NE ,7.2, E ,2009/1/1,7:32:06,,,
2009/1/1 7:50,73.8,1,-5.605,88.9,0,2009/1/1,7:50:00,0.2,NW ,7.2,NNE,2009/1/1,7:49:42,,,
2009/1/1 8:00,98.8,1.2,-5.511,88.9,0,2009/1/1,8:00:00,4.7,SSW,14.4,SSW,2009/1/1,7:56:45,2.5,,
2009/1/1 8:10,128.8,1.5,-5.48,89,0,2009/1/1,8:10:00,2.2,NNE,10.8,NW ,2009/1/1,8:02:10,,,
2009/1/1 8:20,181.3,1.9,-5.449,88.5,0,2009/1/1,8:20:00,1.8,WNW,12.6,SW ,2009/1/1,8:17:03,,,
2009/1/1 8:30,228.8,2.8,-5.295,87.9,0,2009/1/1,8:30:00,3.6,NW ,9,WSW,2009/1/1,8:21:51,,,
2009/1/1 8:40,183.8,2.8,-5.172,88,0,2009/1/1,8:40:00,0.9,WNW,7.2,WNW,2009/1/1,8:31:16,,,
2009/1/1 8:50,213.8,2.3,-5.202,87.7,0,2009/1/1,8:50:00,0.2, W ,5.4,SW ,2009/1/1,8:41:10,,,
2009/1/1 9:00,233.8,3,-5.049,87.1,0,2009/1/1,9:00:00,0.4,ESE,5.4,ENE,2009/1/1,8:59:19,2.5,,
2009/1/1 9:10,218.8,3,-5.018,86.3,0,2009/1/1,9:10:00,2.5,NE ,12.6, W ,2009/1/1,9:06:50,,,
2009/1/1 9:20,213.8,2.9,-5.11,85.8,0,2009/1/1,9:20:00,4.1,ESE,12.6,SW ,2009/1/1,9:11:00,,,
2009/1/1 9:30,176.3,2.7,-5.141,85.8,0,2009/1/1,9:30:00,0.7, E ,7.2, W ,2009/1/1,9:27:27,,,
2009/1/1 9:40,203.8,2.1,-5.141,85.3,0,2009/1/1,9:40:00,1.4, E ,9,SSE,2009/1/1,9:33:46,,,
2009/1/1 9:50,303.8,2.6,-4.957,84.9,0,2009/1/1,9:50:00,0,SE ,0, N ,2009/1/1,9:40:00,,,
2009/1/1 10:00,313.8,3.7,-4.743,84,0,2009/1/1,10:00:00,0.7,ESE,7.2, S ,2009/1/1,9:50:55,2.5,,
2009/1/1 10:10,368.8,3.9,-4.59,82.9,0,2009/1/1,10:10:00,3.4,SE ,10.8,SSE,2009/1/1,10:05:16,,,
2009/1/1 10:20,371.3,4.2,-4.56,83.1,0,2009/1/1,10:20:00,4.3,SSE,10.8,SSW,2009/1/1,10:10:24,,,
2009/1/1 10:30,416.3,5,-4.439,83.1,0,2009/1/1,10:30:00,1.4,SE ,7.2,SSW,2009/1/1,10:20:37,,,
2009/1/1 10:40,606.3,4.9,-4.378,82.9,0,2009/1/1,10:40:00,3.6,ESE,10.8,SE ,2009/1/1,10:30:27,,,
2009/1/1 10:50,596.3,5.8,-4.348,83.2,0,2009/1/1,10:50:00,4.1,SSE,14.4,SW ,2009/1/1,10:48:28,,,
2009/1/1 11:00,771.3,5.8,-4.287,83.3,0,2009/1/1,11:00:00,1.4,ESE,12.6,SW ,2009/1/1,10:55:41,2.5,,
2009/1/1 11:10,728.8,5.6,-4.227,82.6,0,2009/1/1,11:10:00,7.6,SSE,14.4,WSW,2009/1/1,11:06:42,,,
2009/1/1 11:20,588.8,5.1,-4.106,82.6,0,2009/1/1,11:20:00,4.3,SE ,10.8,WSW,2009/1/1,11:15:52,,,
2009/1/1 11:30,678.8,6.7,-4.046,83.3,0,2009/1/1,11:30:00,1.4, E ,9,SE ,2009/1/1,11:23:30,,,
2009/1/1 11:40,788.8,5.2,-4.076,83.3,0,2009/1/1,11:40:00,4.7,ESE,14.4,SSW,2009/1/1,11:35:35,,,
2009/1/1 11:50,678.8,4.3,-4.046,81.8,0,2009/1/1,11:50:00,5.6,SSE,12.6, W ,2009/1/1,11:47:29,,,
2009/1/1 12:00,516.3,4.2,-3.807,81.8,0,2009/1/1,12:00:00,2.5,ESE,12.6,SSW,2009/1/1,11:56:24,2.5,,
2009/1/1 12:10,568.8,5.8,-3.538,81.2,0,2009/1/1,12:10:00,2.9,NNW,12.6,SSW,2009/1/1,12:00:32,,,
2009/1/1 12:20,541.3,7.1,-3.39,80.7,0,2009/1/1,12:20:00,3.4, E ,10.8,SSE,2009/1/1,12:10:05,,,
2009/1/1 12:30,546.3,6.4,-3.449,81.4,0,2009/1/1,12:30:00,2.7,SE ,10.8,SSW,2009/1/1,12:27:16,,,
2009/1/1 12:40,473.8,6.5,-3.271,82.1,0,2009/1/1,12:40:00,2.5,ESE,9,WSW,2009/1/1,12:39:31,,,
2009/1/1 12:50,538.8,5.3,-3.271,81.9,0,2009/1/1,12:50:00,2.3,SE ,9, W ,2009/1/1,12:42:49,,,
2009/1/1 13:00,491.3,6.7,-3.212,81.7,0,2009/1/1,13:00:00,3.6,SSE,9,WNW,2009/1/1,12:53:26,2.5,,
2009/1/1 13:10,541.3,6.6,-3.065,82.9,0,2009/1/1,13:10:00,0.9,NE ,9,SSE,2009/1/1,13:07:39,,,
2009/1/1 13:20,541.3,7.1,-3.006,83.2,0,2009/1/1,13:20:00,2,ESE,9,WSW,2009/1/1,13:10:44,,,
2009/1/1 13:30,548.8,8,-2.976,82.8,0,2009/1/1,13:30:00,3.8,SE ,10.8,WSW,2009/1/1,13:29:01,,,
2009/1/1 13:40,376.3,8.1,-3.33,82.6,0,2009/1/1,13:40:00,6.8,SSE,14.4,WSW,2009/1/1,13:34:46,,,
2009/1/1 13:50,321.3,5.4,-3.568,83.7,0,2009/1/1,13:50:00,6.8,SSE,14.4,SSW,2009/1/1,13:46:43,,,
2009/1/1 14:00,401.3,4.5,-3.568,84.9,0,2009/1/1,14:00:00,5.2, S ,12.6,SW ,2009/1/1,13:51:05,2.5,,
2009/1/1 14:10,348.8,5.2,-3.36,83.8,0,2009/1/1,14:10:00,2,ESE,10.8,WSW,2009/1/1,14:06:22,,,
2009/1/1 14:20,286.3,3.8,-3.449,83.5,0,2009/1/1,14:20:00,4.1,SE ,9,NNW,2009/1/1,14:10:12,,,
2009/1/1 14:30,303.8,4,-3.627,85.1,0,2009/1/1,14:30:00,3.8,SW ,10.8, W ,2009/1/1,14:24:18,,,
2009/1/1 14:40,166.3,4.1,-3.568,84.4,0,2009/1/1,14:40:00,2.5, S ,9,WNW,2009/1/1,14:36:51,,,
2009/1/1 14:50,123.8,2.4,-3.747,85.1,0,2009/1/1,14:50:00,4.7,SSW,12.6,SE ,2009/1/1,14:44:37,,,
2009/1/1 15:00,121.3,1.6,-3.986,87.4,0,2009/1/1,15:00:00,2.3, E ,12.6,WSW,2009/1/1,14:59:43,2.5,,
2009/1/1 15:10,276.3,1.8,-4.137,87.5,0,2009/1/1,15:10:00,6.5, S ,12.6, W ,2009/1/1,15:00:09,,,
2009/1/1 15:20,283.8,3.7,-3.926,86.2,0,2009/1/1,15:20:00,3.4,SE ,10.8,WSW,2009/1/1,15:10:59,,,
2009/1/1 15:30,211.3,4.6,-3.657,85.3,0,2009/1/1,15:30:00,4, S ,14.4,SE ,2009/1/1,15:20:09,,,
2009/1/1 15:40,118.8,2.9,-3.866,86.2,0,2009/1/1,15:40:00,4.7,SSE,12.6,SSW,2009/1/1,15:33:19,,,
2009/1/1 15:50,61.3,1.8,-3.956,87.4,0,2009/1/1,15:50:00,4,SE ,12.6,NNW,2009/1/1,15:48:56,,,
2009/1/1 16:00,61.3,0.8,-4.016,86.3,0,2009/1/1,16:00:00,3.2,ENE,10.8,NW ,2009/1/1,15:51:05,2.5,,
2009/1/1 16:10,81.3,0.9,-4.106,86.2,0,2009/1/1,16:10:00,2.9,ESE,9, N ,2009/1/1,16:00:06,,,
2009/1/1 16:20,58.8,1.1,-4.167,85.7,0,2009/1/1,16:20:00,4, S ,9, S ,2009/1/1,16:13:06,,,
2009/1/1 16:30,31.3,0.8,-4.167,85.3,0,2009/1/1,16:30:00,1.1,NE ,7.2,SW ,2009/1/1,16:20:20,,,
2009/1/1 16:40,13.8,0.6,-4.197,85.7,0,2009/1/1,16:40:00,0.5, E ,5.4,NW ,2009/1/1,16:38:27,,,
2009/1/1 16:50,6.3,0.5,-4.227,85.7,0,2009/1/1,16:50:00,1.6,ESE,10.8,NNW,2009/1/1,16:43:18,,,
2009/1/1 17:00,1.3,0.3,-4.469,86.6,0,2009/1/1,17:00:00,5.6,SSW,12.6,WSW,2009/1/1,16:52:32,2.5,,
2009/1/1 17:10,1.3,0.3,-4.621,87.7,0,2009/1/1,17:10:00,1.8, E ,7.2,WNW,2009/1/1,17:00:19,,,
2009/1/1 17:20,1.3,0.3,-4.651,87.2,0,2009/1/1,17:20:00,3.4, E ,10.8, S ,2009/1/1,17:14:43,,,
2009/1/1 17:30,1.3,0.3,-4.773,87.6,0,2009/1/1,17:30:00,2.2,ENE,10.8,NNW,2009/1/1,17:25:43,,,
2009/1/1 17:40,1.3,0.3,-4.651,87.2,0,2009/1/1,17:40:00,2.9, E ,10.8,ENE,2009/1/1,17:34:18,,,
2009/1/1 17:50,1.3,0.3,-4.59,86.6,0,2009/1/1,17:50:00,1.4,ESE,9, E ,2009/1/1,17:46:01,,,
2009/1/1 18:00,1.3,0.3,-4.59,87.9,0,2009/1/1,18:00:00,1.3,ESE,9, E ,2009/1/1,17:58:25,2.5,,
2009/1/1 18:10,1.3,0.3,-4.59,88.2,0,2009/1/1,18:10:00,5.2, W ,16.2,NW ,2009/1/1,18:07:13,,,
2009/1/1 18:20,1.3,0.3,-4.621,88.4,0,2009/1/1,18:20:00,6.1,WSW,12.6,NNW,2009/1/1,18:14:19,,,
2009/1/1 18:30,1.3,0.3,-4.682,88.2,0,2009/1/1,18:30:00,6.5,WSW,12.6,NNW,2009/1/1,18:21:56,,,
2009/1/1 18:40,1.3,0.3,-4.712,87.7,0,2009/1/1,18:40:00,5.4,WSW,12.6,NNW,2009/1/1,18:35:25,,,
2009/1/1 18:50,1.3,0.3,-4.773,87.5,0,2009/1/1,18:50:00,7,SW ,19.8,NW ,2009/1/1,18:49:40,,,
2009/1/1 19:00,1.3,0.3,-4.895,88.1,0,2009/1/1,19:00:00,6.7,WSW,14.4,WNW,2009/1/1,18:54:32,2.5,,
2009/1/1 19:10,1.3,0.3,-4.987,88.5,0,2009/1/1,19:10:00,5.8,SW ,14.4,WSW,2009/1/1,19:08:44,,,
2009/1/1 19:20,1.3,0.3,-5.141,88.9,0,2009/1/1,19:20:00,4.9, W ,12.6, N ,2009/1/1,19:16:38,,,
2009/1/1 19:30,1.3,0.3,-5.202,89,0,2009/1/1,19:30:00,3.8,ENE,10.8,NW ,2009/1/1,19:20:34,,,
2009/1/1 19:40,1.3,0.3,-5.172,88.6,0,2009/1/1,19:40:00,3.4, S ,10.8,NNW,2009/1/1,19:37:42,,,
2009/1/1 19:50,1.3,0.3,-5.141,88.1,0,2009/1/1,19:50:00,0.2,ESE,5.4, W ,2009/1/1,19:47:50,,,
2009/1/1 20:00,1.3,0.3,-5.202,88.3,0,2009/1/1,20:00:00,2,ESE,10.8, N ,2009/1/1,19:59:49,2.5,,
2009/1/1 20:10,1.3,0.3,-5.202,88.4,0,2009/1/1,20:10:00,4.5,SSE,12.6,NNW,2009/1/1,20:00:08,,,
2009/1/1 20:20,1.3,0.3,-5.202,88.6,0,2009/1/1,20:20:00,4, S ,10.8,WNW,2009/1/1,20:12:28,,,
2009/1/1 20:30,1.3,0.3,-5.141,88.3,0,2009/1/1,20:30:00,2.7,ESE,10.8, S ,2009/1/1,20:29:10,,,
2009/1/1 20:40,1.3,0.3,-5.141,88.7,0,2009/1/1,20:40:00,3.6,ESE,12.6,SW ,2009/1/1,20:30:34,,,
2009/1/1 20:50,1.3,0.3,-5.079,88.9,0,2009/1/1,20:50:00,2.3, E ,9,NNW,2009/1/1,20:44:02,,,
2009/1/1 21:00,1.3,0.3,-5.202,88.5,0,2009/1/1,21:00:00,3.4, E ,14.4,NNW,2009/1/1,20:53:39,2.5,,
2009/1/1 21:10,1.3,0.3,-5.233,87.7,0,2009/1/1,21:10:00,1.3,ESE,7.2, N ,2009/1/1,21:06:50,,,
2009/1/1 21:20,1.3,0.3,-5.264,87.5,0,2009/1/1,21:20:00,3.2,ENE,12.6,NW ,2009/1/1,21:17:10,,,
2009/1/1 21:30,1.3,0.3,-5.264,87.8,0,2009/1/1,21:30:00,2,ENE,7.2,NW ,2009/1/1,21:23:28,,,
2009/1/1 21:40,1.3,0.3,-5.264,88,0,2009/1/1,21:40:00,1.4, E ,9,WSW,2009/1/1,21:32:44,,,
2009/1/1 21:50,1.3,0.3,-5.264,88.1,0,2009/1/1,21:50:00,0.2, E ,3.6,ENE,2009/1/1,21:40:11,,,
2009/1/1 22:00,1.3,0.3,-5.233,88.4,0,2009/1/1,22:00:00,3.1,ESE,9, W ,2009/1/1,21:51:43,2.5,,
2009/1/1 22:10,1.3,0.3,-5.202,88.5,0,2009/1/1,22:10:00,4.1,SSE,9, S ,2009/1/1,22:02:12,,,
2009/1/1 22:20,1.3,0.3,-5.202,88.3,0,2009/1/1,22:20:00,2.5,NE ,9,SSW,2009/1/1,22:17:12,,,
2009/1/1 22:30,1.3,0.3,-5.202,88.4,0,2009/1/1,22:30:00,5.2,SSW,12.6,SW ,2009/1/1,22:23:56,,,
2009/1/1 22:40,1.3,0.3,-5.202,88.3,0,2009/1/1,22:40:00,2.2, E ,9, W ,2009/1/1,22:30:01,,,
2009/1/1 22:50,1.3,0.3,-5.141,88.2,0,2009/1/1,22:50:00,4.3,ESE,10.8,WSW,2009/1/1,22:43:54,,,
2009/1/1 23:00,1.3,0.3,-5.141,87.9,0,2009/1/1,23:00:00,2,ESE,10.8, W ,2009/1/1,22:55:34,2.5,,
2009/1/1 23:10,1.3,0.3,-5.172,87.7,0,2009/1/1,23:10:00,4.5,SE ,12.6,SSE,2009/1/1,23:08:15,,,
2009/1/1 23:20,1.3,0.3,-5.172,88.1,0,2009/1/1,23:20:00,3.1, E ,10.8, S ,2009/1/1,23:11:38,,,
2009/1/1 23:30,1.3,0.3,-5.172,88.4,0,2009/1/1,23:30:00,4.1,NNE,10.8,WNW,2009/1/1,23:21:12,,,
2009/1/1 23:40,1.3,0.3,-5.172,88.5,0,2009/1/1,23:40:00,3.8,SSE,12.6,SSW,2009/1/1,23:33:34,,,
2009/1/1 23:50,1.3,0.3,-5.141,88.6,0,2009/1/1,23:50:00,4.1,SE ,12.6, W ,2009/1/1,23:48:12,,,
2009/1/2 0:00,1.3,0.3,-5.233,88.8,0,2009/1/2,0:00:00,1.6, E ,7.2,SSE,2009/1/1,23:50:17,2.5,,
2009/1/2 0:10,1.3,0.3,-5.295,88.3,0,2009/1/2,0:10:00,3.1,ESE,14.4,SW ,2009/1/2,0:05:26,,,
2009/1/2 0:20,1.3,0.3,-5.357,88.3,0,2009/1/2,0:20:00,2.2, E ,9,NW ,2009/1/2,0:10:55,,,
2009/1/2 0:30,1.3,0.3,-5.295,88.5,0,2009/1/2,0:30:00,2.9, E ,9,NNW,2009/1/2,0:22:37,,,
2009/1/2 0:40,1.3,0.3,-5.264,88.7,0,2009/1/2,0:40:00,3.8,SE ,10.8, W ,2009/1/2,0:30:57,,,
2009/1/2 0:50,1.3,0.3,-5.202,88.6,0,2009/1/2,0:50:00,3.6,ENE,10.8,NW ,2009/1/2,0:49:04,,,
2009/1/2 1:00,1.3,0.3,-5.079,88.7,0,2009/1/2,1:00:00,5, E ,16.2,WNW,2009/1/2,0:56:26,2.5,,
2009/1/2 1:10,1.3,0.3,-4.987,88.7,0,2009/1/2,1:10:00,5.2,SSW,12.6,SSW,2009/1/2,1:05:22,,,
2009/1/2 1:20,1.3,0.3,-4.957,88.9,0,2009/1/2,1:20:00,4.5, S ,14.4,WSW,2009/1/2,1:16:51,,,
2009/1/2 1:30,1.3,0.3,-4.926,89,0,2009/1/2,1:30:00,3.1,ESE,10.8,WNW,2009/1/2,1:24:41,,,
2009/1/2 1:40,1.3,0.3,-4.957,89.3,0,2009/1/2,1:40:00,5.8,WSW,10.8,NNW,2009/1/2,1:30:10,,,
2009/1/2 1:50,1.3,0.3,-4.957,89.4,0,2009/1/2,1:50:00,3.8,SE ,12.6, W ,2009/1/2,1:45:21,,,
2009/1/2 2:00,1.3,0.3,-4.895,89.3,0,2009/1/2,2:00:00,4.1,SE ,12.6,NW ,2009/1/2,1:51:10,2.5,,
2009/1/2 2:10,1.3,0.3,-4.651,88.2,0,2009/1/2,2:10:00,6.3,SSW,14.4, W ,2009/1/2,2:01:04,,,
2009/1/2 2:20,1.3,0.3,-4.59,87.8,0,2009/1/2,2:20:00,6.3,SSW,14.4,SSE,2009/1/2,2:16:46,,,
2009/1/2 2:30,1.3,0.3,-4.59,87.8,0,2009/1/2,2:30:00,5.2,SE ,18,SSE,2009/1/2,2:26:53,,,
2009/1/2 2:40,1.3,0.3,-4.651,88.2,0,2009/1/2,2:40:00,5.6, S ,16.2,SE ,2009/1/2,2:35:26,,,
2009/1/2 2:50,1.3,0.3,-4.712,89.1,0,2009/1/2,2:50:00,5.6,SSW,14.4,WSW,2009/1/2,2:42:35,,,
2009/1/2 3:00,1.3,0.3,-4.712,89.4,0,2009/1/2,3:00:00,8.6,SW ,19.8,SW ,2009/1/2,2:57:42,2.5,,
2009/1/2 3:10,1.3,0.3,-4.773,89.5,0,2009/1/2,3:10:00,6.7,SSW,14.4,SSE,2009/1/2,3:00:01,,,
2009/1/2 3:20,1.3,0.3,-4.712,89.4,0,2009/1/2,3:20:00,7.2,SW ,16.2,NW ,2009/1/2,3:19:22,,,
2009/1/2 3:30,1.3,0.3,-4.712,89.6,0,2009/1/2,3:30:00,6.8,SW ,16.2,WNW,2009/1/2,3:22:01,,,
2009/1/2 3:40,1.3,0.3,-4.682,89.6,0,2009/1/2,3:40:00,5.6,WSW,12.6,WSW,2009/1/2,3:33:06,,,
2009/1/2 3:50,1.3,0.3,-4.712,89.8,0,2009/1/2,3:50:00,4.7,NNW,14.4,WNW,2009/1/2,3:48:45,,,
2009/1/2 4:00,1.3,0.3,-4.712,89.6,0,2009/1/2,4:00:00,7,SW ,16.2,NNW,2009/1/2,3:50:13,2.5,,
2009/1/2 4:10,1.3,0.3,-4.712,89.7,0,2009/1/2,4:10:00,2.5,SSE,10.8,WNW,2009/1/2,4:07:33,,,
2009/1/2 4:20,1.3,0.3,-4.682,89.5,0,2009/1/2,4:20:00,5,SW ,10.8,SW ,2009/1/2,4:14:51,,,
2009/1/2 4:30,1.3,0.3,-4.682,89.4,0,2009/1/2,4:30:00,5,SW ,12.6,SW ,2009/1/2,4:27:44,,,
2009/1/2 4:40,1.3,0.3,-4.651,89.8,0,2009/1/2,4:40:00,6.8,SW ,18, W ,2009/1/2,4:39:29,,,
2009/1/2 4:50,1.3,0.3,-4.59,89.5,0,2009/1/2,4:50:00,8.1,SW ,16.2, S ,2009/1/2,4:42:59,,,
2009/1/2 5:00,1.3,0.3,-4.621,89.9,0,2009/1/2,5:00:00,6.8,SW ,12.6,SSW,2009/1/2,4:53:12,2.5,,
2009/1/2 5:10,1.3,0.3,-4.682,90.1,0,2009/1/2,5:10:00,5, S ,14.4,WNW,2009/1/2,5:09:13,,,
2009/1/2 5:20,1.3,0.3,-4.53,89.3,0,2009/1/2,5:20:00,4.1,SSW,10.8,WNW,2009/1/2,5:10:08,,,
2009/1/2 5:30,1.3,0.3,-4.469,88.8,0,2009/1/2,5:30:00,4.5,SSE,12.6, S ,2009/1/2,5:22:40,,,
2009/1/2 5:40,1.3,0.3,-4.469,89,0,2009/1/2,5:40:00,4.5, W ,9,NNE,2009/1/2,5:31:07,,,
2009/1/2 5:50,1.3,0.3,-4.439,89.2,0,2009/1/2,5:50:00,5.8,SW ,12.6,SSW,2009/1/2,5:44:48,,,
2009/1/2 6:00,1.3,0.3,-4.408,89.2,0,2009/1/2,6:00:00,3.1,ESE,10.8,SW ,2009/1/2,5:58:45,2.5,,
2009/1/2 6:10,1.3,0.3,-4.408,89.1,0,2009/1/2,6:10:00,2.3,ENE,9,SW ,2009/1/2,6:00:16,,,
2009/1/2 6:20,1.3,0.3,-4.408,89.2,0,2009/1/2,6:20:00,2.5,NE ,12.6,NE ,2009/1/2,6:18:40,,,
2009/1/2 6:30,1.3,0.3,-4.408,89,0,2009/1/2,6:30:00,3.8,NE ,10.8, N ,2009/1/2,6:24:02,,,
2009/1/2 6:40,1.3,0.3,-4.408,89,0,2009/1/2,6:40:00,5.9,WSW,12.6,NNW,2009/1/2,6:30:50,,,
2009/1/2 6:50,1.3,0.3,-4.408,89,0,2009/1/2,6:50:00,6.8,SW ,12.6,NNW,2009/1/2,6:40:04,,,
2009/1/2 7:00,3.8,0.3,-4.348,88.7,0,2009/1/2,7:00:00,5.9,WSW,10.8,NW ,2009/1/2,6:50:06,2.5,,
2009/1/2 7:10,8.8,0.4,-4.257,88.6,0,2009/1/2,7:10:00,5.8,SW ,19.8,NW ,2009/1/2,7:06:09,,,
2009/1/2 7:20,18.8,0.5,-4.257,89,0,2009/1/2,7:20:00,4.5,NNE,12.6, W ,2009/1/2,7:15:10,,,
2009/1/2 7:30,16.3,0.7,-4.227,88.9,0,2009/1/2,7:30:00,3.4,SE ,10.8,SSW,2009/1/2,7:25:55,,,
2009/1/2 7:40,28.8,0.6,-4.257,89.3,0,2009/1/2,7:40:00,5.9, W ,14.4,NNW,2009/1/2,7:32:17,,,
2009/1/2 7:50,43.8,0.7,-4.197,89.6,0,2009/1/2,7:50:00,7.7,WSW,18,SSW,2009/1/2,7:42:23,,,
2009/1/2 8:00,88.8,1.1,-4.106,89.7,0,2009/1/2,8:00:00,7.6,SW ,16.2,SSW,2009/1/2,7:52:48,2.5,,
2009/1/2 8:10,76.3,2.2,-4.016,89.3,0,2009/1/2,8:10:00,7.6,WSW,14.4,SW ,2009/1/2,8:08:01,,,
2009/1/2 8:20,71.3,1.8,-4.046,90.2,0,2009/1/2,8:20:00,7.2,WSW,14.4, W ,2009/1/2,8:14:18,,,
2009/1/2 8:30,66.3,1.4,-4.076,90.6,0,2009/1/2,8:30:00,6.8,WSW,14.4,WSW,2009/1/2,8:20:02,,,
2009/1/2 8:40,108.8,1.6,-4.046,90.9,0,2009/1/2,8:40:00,5.8, W ,14.4,NNW,2009/1/2,8:35:31,,,
2009/1/2 8:50,166.3,2.5,-4.016,90.6,0,2009/1/2,8:50:00,5.6,WSW,16.2, W ,2009/1/2,8:41:03,,,
2009/1/2 9:00,196.3,4,-3.866,89.7,0,2009/1/2,9:00:00,4.3,SSW,10.8,SW ,2009/1/2,8:58:36,2.5,,
2009/1/2 9:10,233.8,3.3,-3.807,89.3,0,2009/1/2,9:10:00,5.4,SW ,10.8,NNW,2009/1/2,9:00:18,,,
2009/1/2 9:20,186.3,4.6,-3.717,89.4,0,2009/1/2,9:20:00,4,SE ,16.2, W ,2009/1/2,9:18:00,,,
2009/1/2 9:30,281.3,3.5,-3.777,89.9,0,2009/1/2,9:30:00,6.5,SSW,16.2,SW ,2009/1/2,9:24:04,,,
2009/1/2 9:40,306.3,5,-3.568,89.9,0,2009/1/2,9:40:00,6.3,SW ,12.6, S ,2009/1/2,9:35:52,,,
2009/1/2 9:50,331.3,5.4,-3.449,88.9,0,2009/1/2,9:50:00,5.2,SSW,14.4,SW ,2009/1/2,9:44:48,,,
2009/1/2 10:00,401.3,8.3,-3.242,88.1,0,2009/1/2,10:00:00,4.7,SSE,14.4,NW ,2009/1/2,9:55:18,2.5,,
2009/1/2 10:10,351.3,10.4,-3.242,87.8,0,2009/1/2,10:10:00,6.5,SSW,14.4,WNW,2009/1/2,10:01:32,,,
2009/1/2 10:20,426.3,6.1,-3.094,88,0,2009/1/2,10:20:00,4.3,SE ,16.2, W ,2009/1/2,10:15:15,,,
2009/1/2 10:30,483.8,7,-2.888,87.8,0,2009/1/2,10:30:00,4, E ,19.8,WSW,2009/1/2,10:29:00,,,
2009/1/2 10:40,521.3,8.5,-2.8,87.7,0,2009/1/2,10:40:00,3.2,NE ,12.6,SW ,2009/1/2,10:30:01,,,
2009/1/2 10:50,478.8,12.6,-2.8,87.3,0,2009/1/2,10:50:00,5,SSW,12.6,ESE,2009/1/2,10:41:45,,,
2009/1/2 11:00,416.3,12.2,-2.742,87.1,0,2009/1/2,11:00:00,4.1,SE ,12.6,SSW,2009/1/2,10:58:21,2.5,,
2009/1/2 11:10,483.8,7.7,-2.859,86.7,0,2009/1/2,11:10:00,7, S ,14.4,WSW,2009/1/2,11:00:22,,,
2009/1/2 11:20,311.3,9.2,-2.771,86.6,0,2009/1/2,11:20:00,3.8,ENE,12.6,WNW,2009/1/2,11:17:42,,,
2009/1/2 11:30,346.3,8.6,-2.918,86.6,0,2009/1/2,11:30:00,9,SSW,18,SW ,2009/1/2,11:21:43,,,
2009/1/2 11:40,388.8,7.4,-2.918,87.5,0,2009/1/2,11:40:00,7.6,SSW,16.2,ESE,2009/1/2,11:34:24,,,
2009/1/2 11:50,421.3,10.4,-2.859,87.4,0,2009/1/2,11:50:00,8.3, S ,16.2, W ,2009/1/2,11:42:34,,,
2009/1/2 12:00,476.3,14,-2.771,87.2,0,2009/1/2,12:00:00,8.1,SSW,18,SW ,2009/1/2,11:54:53,2.5,,
2009/1/2 12:10,656.3,18.2,-2.566,87,0,2009/1/2,12:10:00,6.8, S ,14.4,SSW,2009/1/2,12:07:13,,,
2009/1/2 12:20,716.3,20.9,-2.45,86.3,0,2009/1/2,12:20:00,7.6,SSW,19.8,WSW,2009/1/2,12:11:27,,,
2009/1/2 12:30,433.8,20.3,-2.392,86.2,0,2009/1/2,12:30:00,7, S ,19.8,SW ,2009/1/2,12:20:16,,,
2009/1/2 12:40,478.8,11,-2.596,86.5,0,2009/1/2,12:40:00,7.2,SSW,18,SSE,2009/1/2,12:38:29,,,
2009/1/2 12:50,416.3,15.8,-2.421,86.1,0,2009/1/2,12:50:00,5.9, S ,12.6,SW ,2009/1/2,12:41:23,,,
2009/1/2 13:00,453.8,8.8,-2.45,86.1,0,2009/1/2,13:00:00,5.4,SSE,16.2,WNW,2009/1/2,12:59:25,2.5,,
2009/1/2 13:10,553.8,13.3,-2.276,86.1,0,2009/1/2,13:10:00,7.2,SSW,14.4,WSW,2009/1/2,13:03:09,,,
2009/1/2 13:20,481.3,23.7,-2.218,85,0,2009/1/2,13:20:00,5.8, S ,14.4,WSW,2009/1/2,13:13:32,,,
2009/1/2 13:30,591.3,20.2,-2.102,84.2,0,2009/1/2,13:30:00,5.6,SW ,18,SE ,2009/1/2,13:28:35,,,
2009/1/2 13:40,586.3,20.1,-2.218,84.9,0,2009/1/2,13:40:00,8.1, S ,18,SE ,2009/1/2,13:35:49,,,
2009/1/2 13:50,393.8,17.7,-2.189,85.9,0,2009/1/2,13:50:00,5.4,SSE,14.4,WSW,2009/1/2,13:40:41,,,
2009/1/2 14:00,341.3,10.7,-2.363,85.9,0,2009/1/2,14:00:00,6.1, S ,12.6, W ,2009/1/2,13:53:31,2.5,,
2009/1/2 14:10,331.3,11.6,-2.683,86.2,0,2009/1/2,14:10:00,9.9, S ,19.8,SSW,2009/1/2,14:01:44,,,
2009/1/2 14:20,466.3,11.2,-2.859,87.4,0,2009/1/2,14:20:00,9.9,SSW,19.8, S ,2009/1/2,14:13:54,,,
2009/1/2 14:30,351.3,14.4,-2.742,87.5,0,2009/1/2,14:30:00,9,SSW,21.6,SSW,2009/1/2,14:21:08,,,
2009/1/2 14:40,338.8,17.5,-2.683,86.7,0,2009/1/2,14:40:00,11.2,SSW,25.2,SSW,2009/1/2,14:34:19,,,
2009/1/2 14:50,281.3,13.9,-2.712,86.1,0,2009/1/2,14:50:00,7.2,SSW,19.8,WSW,2009/1/2,14:45:02,,,
2009/1/2 15:00,266.3,11.6,-2.712,85.9,0,2009/1/2,15:00:00,7,SSW,14.4,NW ,2009/1/2,14:50:03,2.5,,
2009/1/2 15:10,253.8,16.8,-2.654,86.3,0,2009/1/2,15:10:00,7.2,SSW,16.2, W ,2009/1/2,15:00:03,,,
2009/1/2 15:20,268.8,12.8,-2.683,86.4,0,2009/1/2,15:20:00,6.5,SSW,14.4,SSE,2009/1/2,15:14:54,,,
2009/1/2 15:30,263.8,11.3,-2.8,86.2,0,2009/1/2,15:30:00,10.4,SSW,21.6, W ,2009/1/2,15:25:05,,,
2009/1/2 15:40,121.3,9.2,-2.918,86.7,0,2009/1/2,15:40:00,8.8,SW ,19.8,SSE,2009/1/2,15:36:12,,,
2009/1/2 15:50,171.3,8,-3.035,87.1,0,2009/1/2,15:50:00,6.5,SW ,16.2,WSW,2009/1/2,15:40:47,,,
2009/1/2 16:00,116.3,10.6,-3.094,87,0,2009/1/2,16:00:00,9.7,SW ,23.4,WSW,2009/1/2,15:57:42,2.5,,
2009/1/2 16:10,93.8,4.6,-3.33,87.4,0,2009/1/2,16:10:00,9,SW ,21.6,SSW,2009/1/2,16:09:00,,,
2009/1/2 16:20,71.3,4.6,-3.449,88.1,0,2009/1/2,16:20:00,10.1,WSW,21.6,WSW,2009/1/2,16:18:59,,,
2009/1/2 16:30,36.3,2.8,-3.627,88.5,0,2009/1/2,16:30:00,11.3,WSW,23.4,SSW,2009/1/2,16:23:42,,,
2009/1/2 16:40,18.8,1.6,-3.598,88.2,0,2009/1/2,16:40:00,8.1,WSW,18,SSW,2009/1/2,16:30:09,,,
2009/1/2 16:50,8.8,0.8,-3.627,88.2,0,2009/1/2,16:50:00,7.9,WSW,18, S ,2009/1/2,16:46:18,,,
2009/1/2 17:00,1.3,0.6,-3.807,87.9,0,2009/1/2,17:00:00,7.7,WSW,21.6,SSW,2009/1/2,16:59:53,2.5,,
2009/1/2 17:10,1.3,0.4,-3.956,87.9,0,2009/1/2,17:10:00,9.5,WSW,19.8, W ,2009/1/2,17:00:10,,,
2009/1/2 17:20,1.3,0.3,-3.896,87.6,0,2009/1/2,17:20:00,11,SW ,23.4,SSW,2009/1/2,17:10:59,,,
2009/1/2 17:30,1.3,0.3,-3.926,88,0,2009/1/2,17:30:00,2.7,ENE,10.8,WNW,2009/1/2,17:20:09,,,
2009/1/2 17:40,1.3,0.3,-3.926,89,0,2009/1/2,17:40:00,3.1,SSE,7.2,NE ,2009/1/2,17:31:33,,,
2009/1/2 17:50,1.3,0.3,-3.926,89.4,0,2009/1/2,17:50:00,4.1,NNE,10.8,NNW,2009/1/2,17:45:02,,,
2009/1/2 18:00,1.3,0.3,-3.986,89.7,0,2009/1/2,18:00:00,4.7,WSW,14.4,WNW,2009/1/2,17:58:35,2.5,,
2009/1/2 18:10,1.3,0.3,-3.986,89.2,0,2009/1/2,18:10:00,4.9, S ,14.4,WNW,2009/1/2,18:05:08,,,
2009/1/2 18:20,1.3,0.3,-4.046,88.7,0,2009/1/2,18:20:00,4.7, S ,12.6,NW ,2009/1/2,18:12:34,,,
2009/1/2 18:30,1.3,0.3,-4.137,89.1,0,2009/1/2,18:30:00,6.3,SSW,14.4,WNW,2009/1/2,18:20:42,,,